User: anonymous   Login
Location: Unspecified
(0.0000°N, 0.0000°E)
Time: 01:39:57
(UTC+00:00)
Language:

NOAA 17 - Orbit

View from above orbital plane
View from above orbital plane
View from above satellite
View from above satellite

Ground track
Ground track

The orbit data is extracted from the following two-line orbital elements,

1 27453U 02032A   17177.25061046 -.00000008 +00000-0 +14313-4 0  9990
2 27453 098.4347 141.4042 0011865 167.5318 192.6158 14.24988055780043
Epoch (UTC): 26 June 2017 06:00:52
Eccentricity: 0.0011865
inclination: 98.4347°
perigee height: 800 km
apogee height: 817 km
right ascension of ascending node: 141.4042°
argument of perigee: 167.5318°
revolutions per day: 14.24988055
mean anomaly at epoch: 192.6158°
orbit number at epoch: 78004

The dashed part of the orbit path shows where the satellite is in the earth's shadow,  

DLR